Location: Schommer Observatory
(40.5200°N, 74.4500°W)
Time: 02:36:14
(UTC-05:00)

OTV 5 (USA 277) - Pass Details

Date: 17 November 2017
Orbit: 404 x 417 km, 43.0° (Epoch: 07 September)

Event Time Altitude Azimuth Distance (km) Brightness Sun altitude
Exits shadow 04:20:20 19° 76° (ENE) 1,035 ? -27.7°
Drops below altitude 10° 04:21:26 10° 82° (E) 1,455 ? -27.5°
Sets 04:23:33 0° 87° (E) 2,314 ? -27.1°
